Location: Peach Mountain Observatory
(42.3967°N, 83.9367°W)
Time: 21:04:46
(UTC-05:00)

S-56A Canister/Altair - Pass Details

Date: 29 January 2020
Orbit: 633 x 2500 km, 38.9° (Epoch: 25 February)

Event Time Altitude Azimuth Distance (km) Brightness Sun altitude
Rises 19:18:02 0° 237° (WSW) 4,902 12.9 -17.2°
Reaches altitude 10° 19:21:54 10° 233° (SW) 3,602 11.9 -17.9°
Maximum altitude 19:30:01 46° 164° (SSE) 1,412 8.7 -19.4°
Enters shadow 19:32:40 30° 112° (ESE) 1,644 8.7 -19.9°
Drops below altitude 10° 19:35:34 10° 92° (E) 2,477 - -20.4°
Sets 19:37:46 0° 85° (E) 3,258 - -20.8°
